Regional Weather Roundup
Issued by NWS Grand Forks, ND

Home | Current Version | Previous Version | Text Only | Print | Product List | Glossary Off
Versions: 1 2 3 4 5 6 7 8 9 10 11 12 13 14 15 16 17 18 19 20 21 22 23 24 25 26 27 28 29 30 31 32 33 34 35 36 37 38 39 40 41 42 43 44 45 46 47 48 49 50

000
ASUS43 KFGF 250610
RWRFGF
PRAIRIE TO PINES  WEATHER ROUNDUP
NATIONAL WEATHER SERVICE EASTERN NORTH DAKOTA/GRAND FORKS ND
1200 AM CST SUN JAN 25 2015

 **SATELLITE DATA USED TO AUGMENT SKY COVER AT AUTOMATED STATIONS**
 *****  WEATHER ACROSS EASTERN NORTH DAKOTA  *****

CITY           SKY/WX    TMP DP  RH WIND       PRES   REMARKS
GRAND FORKS    CLOUDY    21  14  74 N12       29.89R WCI   9
6HR MIN TEMP:  21; 6HR MAX TEMP:  27;

GRAND FRKS AFB CLOUDY    19  14  80 N13       29.89R WCI   7
GRAND FRKS NWS   N/A     21 N/A N/A N10         N/A  WCI  10
DEVILS LAKE    CLOUDY    18  14  86 NE6       29.85R WCI   9
6HR MIN TEMP:  18; 6HR MAX TEMP:  25;

FARGO          CLOUDY    29  23  78 N18       29.82R WCI  16
WAHPETON ARPT  CLOUDY    32  30  93 N13       29.79R WCI  22
$$

 ***** WEATHER ACROSS CENTRAL AND WESTERN NORTH DAKOTA  *****

CITY           SKY/WX    TMP DP  RH WIND       PRES   REMARKS
BISMARCK       CLOUDY    37  32  82 NW15      29.84R
6HR MIN TEMP:  33; 6HR MAX TEMP:  37; 6HR PCP:  0.05;

MINOT          CLOUDY    30  29  96 NW3       29.83R FOG
6HR MIN TEMP:  30; 6HR MAX TEMP:  32; 6HR PCP:  0.05;

JAMESTOWN      LGT SNOW  25  23  92 N8        29.83R FOG     WCI  16
6HR MIN TEMP:  25; 6HR MAX TEMP:  31; 6HR PCP:  0.03;

MINOT AFB      MIX PCPN  27  27 100 N3        29.84R
GARRISON         N/A     35  33  92 NW16      29.83R
WILLISTON      CLOUDY    36  30  79 W14       29.91R
6HR MIN TEMP:  35; 6HR MAX TEMP:  39;

DICKINSON      PTCLDY    35  29  78 W16       29.88R
6HR MIN TEMP:  35; 6HR MAX TEMP:  39;

HETTINGER      CLOUDY    35  30  82 NW14      29.93R
6HR MIN TEMP:  35; 6HR MAX TEMP:  40;

$$

 *****  OTHER AIRPORT OBSERVATIONS IN OUR AREA  *****

CITY           SKY/WX    TMP DP  RH WIND       PRES   REMARKS
WALHALLA         N/A     16  14  93 N8        29.92R WCI   5
GRAFTON AIRPOR NOT AVBL
VALLEY CITY AR NOT AVBL
CANDO          CLOUDY    18  14  86 NE7       29.87R FOG     WCI   8
CAVALIER APRT  FAIR      16  12  86 N9        29.92R WCI   4
GWINNER        CLOUDY    30  30 100 N17       29.81R WCI  18
ROLLA          FLURRIES  14  14 100 NE6       29.86R WCI   5
 ***** THE ABOVE OBSERVATIONS ARE NON NWS ARE NOT QUALITY
       CONTROLLED AND MAY MIS-REPORT RAIN FOR SNOW...
$$

  *****  WEATHER ACROSS NORTHERN MINNESOTA  *****

CITY           SKY/WX    TMP DP  RH WIND       PRES   REMARKS
FLAG ISLAND    MOCLDY     9   0  66 E7        29.92R WCI  -3
WARROAD        CLOUDY    12   5  73 NE14G20   29.91R WCI  -3
ROSEAU         CLOUDY    14   7  73 NE15      29.91R WCI  -1
HALLOCK        CLOUDY    19  10  68 E7        29.91R WCI  10
THF RVR FALLS  CLOUDY    18  10  73 NE8       29.86R WCI   7
6HR MIN TEMP:  18; 6HR MAX TEMP:  30;

BAUDETTE       CLOUDY    12   3  67 E9        29.89R WCI   0
6HR MIN TEMP:  12; 6HR MAX TEMP:  18;

WASKISH        CLOUDY    14   9  79 NE9       29.86R WCI   2
CROOKSTON      CLOUDY    21  14  73 NE6       29.88R WCI  14
STEPHEN NDAWN    N/A     18  12  79 NE8         N/A  WCI   7
GREENBUSH NDAW   N/A     14   9  79 NE13        N/A  WCI   0
$$
  *****  WEATHER ACROSS CENTRAL AND WEST MINNESOTA  *****

CITY           SKY/WX    TMP DP  RH WIND       PRES   REMARKS
FOSSTON        CLOUDY    18  10  73 NE9       29.82R WCI   6
BEMIDJI        CLOUDY    19  11  72 NE8       29.80R WCI   9
PARK RAPIDS    CLOUDY    28  21  75 NE7       29.75R WCI  21
6HR MIN TEMP:  28; 6HR MAX TEMP:  34;

ELBOW LAKE     FLURRIES  32  31  96 N7        29.74R
6HR MIN TEMP:  31; 6HR MAX TEMP:  32;

WADENA         CLOUDY    28  25  86 NE7         N/A  WCI  21
DETROIT LAKES  CLOUDY    32  28  86 NE5       29.78R
MOORHEAD       CLOUDY    30  28  93 N14       29.82R WCI  20
FERGUS FALLS   CLOUDY    32  30  93 NE5       29.78R
MORRIS MN      LGT SNOW  34  32  93 N12       29.72R
STAPLES        CLOUDY    30  27  86 NE7       29.74R WCI  23
$$
  *****  WEATHER ELSEWHERE ACROSS MINNESOTA  *****

CITY           SKY/WX    TMP DP  RH WIND       PRES   REMARKS
DULUTH         FLURRIES  21  13  71 E16G24    29.81R WCI   7
6HR MIN TEMP:  21; 6HR MAX TEMP:  27; 6HR PCP: TRACE;

INTRNTL FALLS  CLOUDY     7  -2  66 E13       29.91R WCI  -9
6HR MIN TEMP:   7; 6HR MAX TEMP:  15;

ELY            PTCLDY     5   0  78 NE5       29.87R WCI  -4
CLOQUET        CLOUDY    21  16  79 NE12G21   29.81R WCI   9
WHEATON        LGT SNOW  30  30 100 N10       29.78R WCI  21
BRAINERD       CLOUDY    28  23  81 NE7       29.76R WCI  21
6HR MIN TEMP:  28; 6HR MAX TEMP:  35;

HIBBING        CLOUDY    21  12  68 E6        29.81R WCI  13
6HR MIN TEMP:  21; 6HR MAX TEMP:  30;

ALEXANDRIA     CLOUDY    32  30  92 NE10      29.73R WCI  24
6HR MIN TEMP:  32; 6HR MAX TEMP:  33; 6HR PCP:  0.02;

SAINT CLOUD    CLOUDY    32  29  88 NE10      29.71R WCI  24
6HR MIN TEMP:  32; 6HR MAX TEMP:  36; 6HR PCP:  0.01;

MINNEAPOLIS    CLOUDY    35  31  85 NE12      29.68R
6HR MIN TEMP:  35; 6HR MAX TEMP:  39; 6HR PCP: TRACE;

$$

  *****  WEATHER ACROSS SOUTH DAKOTA  *****

CITY           SKY/WX    TMP DP  RH WIND       PRES   REMARKS
SIOUX FALLS    LGT SNOW  33  32  96 N17       29.66R FOG     WCI  22
6HR MIN TEMP:  33; 6HR MAX TEMP:  39; 6HR PCP:  0.08;

BROOKINGS      NOT AVBL
WATERTOWN      LGT SNOW  31  29  92 N15       29.71R FOG     WCI  20
6HR MIN TEMP:  31; 6HR MAX TEMP:  35; 6HR PCP:  0.04;

HURON          LGT SNOW  32  31  96 N21G28    29.77R FOG     WCI  20
6HR MIN TEMP:  32; 6HR MAX TEMP:  40; 6HR PCP:  0.03;

SISSETON         N/A     32  32 100 N16       29.76R WCI  21
ABERDEEN       LGT SNOW  32  29  88 N15G24    29.81R FOG     WCI  22
6HR MIN TEMP:  32; 6HR MAX TEMP:  36; 6HR PCP:  0.07;

MITCHELL       LGT SNOW  33  32  96 N23       29.76R FOG     WCI  21
PIERRE         LGT RAIN  36  35  96 NW10      29.85R
6HR MIN TEMP:  36; 6HR MAX TEMP:  45; 6HR PCP: TRACE;

MOBRIDGE       CLOUDY    38  35  89 NW13      29.81R
RAPID CITY     CLEAR     39  26  59 NW24G35   29.98R
6HR MIN TEMP:  39; 6HR MAX TEMP:  44;

$$

  *****  SOME WEATHER IN NEARBY STATES *****

CITY           SKY/WX    TMP DP  RH WIND       PRES   REMARKS
GLASGOW MT     CLEAR     32  27  81 NW7       30.01S
6HR MIN TEMP:  32; 6HR MAX TEMP:  41;

GREAT FALLS MT CLOUDY    44  34  67 SW10      30.08F
6HR MIN TEMP:  42; 6HR MAX TEMP:  45;

CHEYENNE WY    CLOUDY    39  25  57 NW22G32   30.13R
6HR MIN TEMP:  33; 6HR MAX TEMP:  40; 6HR PCP: TRACE;

SCOTTSBLUFF NE PTCLDY    38  29  70 NW23G35   30.07S
6HR MIN TEMP:  37; 6HR MAX TEMP:  41; 6HR PCP:  0.03;

OMAHA NE       CLOUDY    45  38  76 NW18      29.61R
6HR MIN TEMP:  45; 6HR MAX TEMP:  51; 6HR PCP:  0.02;

DES MOINES IA  LGT RAIN  41  36  82 S7        29.56F
6HR MIN TEMP:  41; 6HR MAX TEMP:  48; 6HR PCP:  0.01;

DAVENPORT IA   CLOUDY    34  31  88 E6        29.60F
6HR MIN TEMP:  32; 6HR MAX TEMP:  41;

CHICAGO IL     CLOUDY    32  29  88 NE6       29.67S
6HR MIN TEMP:  31; 6HR MAX TEMP:  33;

EAU CLAIRE WI  CLOUDY    35  29  78 NE13      29.68R
6HR MIN TEMP:  31; 6HR MAX TEMP:  35;

LA CROSSE WI   CLOUDY    37  30  75 E7        29.64R
6HR MIN TEMP:  32; 6HR MAX TEMP:  37;

$$

  *****  SOME NATIONAL WEATHER *****

CITY           SKY/WX    TMP DP  RH WIND       PRES   REMARKS
LA GUARDIA NY  MOCLDY    36  24  62 NW17G23   29.50R
6HR MIN TEMP:  35; 6HR MAX TEMP:  39;

RALEIGH NC     PTCLDY    35  24  64 W6        29.83R
6HR MIN TEMP:  35; 6HR MAX TEMP:  44;

ATLANTA GA     CLEAR     36  27  69 W3        29.97F
6HR MIN TEMP:  36; 6HR MAX TEMP:  43;

NEW ORLEANS LA PTCLDY    44  38  79 SW6       30.09F
6HR MIN TEMP:  44; 6HR MAX TEMP:  53;

OKLAHOMA CITY  CLOUDY    47  32  56 W13       29.90S
6HR MIN TEMP:  42; 6HR MAX TEMP:  51;

ALBUQUERQUE NM CLEAR     38  19  46 N6        30.25R
6HR MIN TEMP:  37; 6HR MAX TEMP:  50;

SALT LAKE CITY CLOUDY    35  29  78 N3        30.48R
6HR MIN TEMP:  34; 6HR MAX TEMP:  39;

LOS ANGELES CA CLEAR     64  33  31 CALM      30.04R



USA.gov is the U.S. government's official web portal to all federal, state and local government web resources and services.